Location: Unspecified
(0.0000°N, 0.0000°E)
Time: 02:52:17
(UTC+00:00)

STARLINK-2039 - Pass Details

Date: 24 February 2021
Orbit: 316 x 318 km, 53.1° (Epoch: 23 February)

Event Time Altitude Azimuth Distance (km) Brightness Sun altitude
Exits shadow 05:19:28 - 349° (N) 1,639 5.8 -13.3°
Reaches altitude 10° 05:20:36 10° 359° (N) 1,219 5.3 -13.0°
Maximum altitude 05:22:52 24° 56° (NE) 726 4.8 -12.4°
Drops below altitude 10° 05:25:08 10° 113° (ESE) 1,228 6.8 -11.9°
Sets 05:27:19 0° 128° (SE) 2,063 7.8 -11.3°
